| time (UTC) | temp F | wind direction | speed MPH | gust MPH | rain 1hr in | rain 24hr in | rain mn in | humidity % | barometer mb |
| 20260906183004 | 79 | 339 | 2.0 | 10.0 | 0.00 | 0.03 | 0.00 | 61 | 1015.0 |
| 20260906181502 | 78 | 9 | 0.0 | 9.0 | 0.00 | 0.03 | 0.00 | 67 | 1015.0 |
| 20260906180005 | 79 | 342 | 2.0 | 7.0 | 0.00 | 0.03 | 0.00 | 62 | 1015.0 |
| 20260906174509 | 78 | 312 | 2.0 | 8.0 | 0.00 | 0.03 | 0.00 | 63 | 1015.2 |
| 20260906173003 | 78 | 14 | 4.0 | 11.0 | 0.00 | 0.03 | 0.00 | 63 | 1015.2 |
| 20260906171503 | 77 | 327 | 2.0 | 9.0 | 0.00 | 0.03 | 0.00 | 65 | 1015.2 |
| 20260906170003 | 77 | 95 | 0.0 | 6.0 | 0.00 | 0.03 | 0.00 | 64 | 1015.3 |
| 20260906164503 | 76 | 86 | 4.0 | 11.0 | 0.00 | 0.03 | 0.00 | 65 | 1015.4 |
| 20260906163016 | 76 | 20 | 2.0 | 6.0 | 0.00 | 0.06 | 0.00 | 71 | 1015.5 |
| 20260906161503 | 76 | 348 | 1.0 | 8.0 | 0.00 | 0.09 | 0.00 | 69 | 1015.6 |
| 20260906160003 | 75 | 349 | 4.0 | 10.0 | 0.00 | 0.32 | 0.00 | 69 | 1015.8 |
| 20260906154508 | 75 | 346 | 1.0 | 8.0 | 0.00 | 0.42 | 0.00 | 70 | 1015.7 |
| 20260906153008 | 75 | 292 | 1.0 | 4.0 | 0.00 | 0.43 | 0.00 | 71 | 1015.7 |
| 20260906151503 | 74 | 305 | 2.0 | 9.0 | 0.00 | 0.43 | 0.00 | 70 | 1015.6 |
| 20260906150011 | 74 | 345 | 2.0 | 4.0 | 0.00 | 0.43 | 0.00 | 75 | 1015.6 |
| 20260906144515 | 73 | 344 | 1.0 | 4.0 | 0.00 | 0.43 | 0.00 | 76 | 1015.6 |
| 20260906143016 | 72 | 319 | 2.0 | 10.0 | 0.00 | 0.43 | 0.00 | 76 | 1015.5 |
| 20260906141511 | 72 | 352 | 3.0 | 8.0 | 0.00 | 0.43 | 0.00 | 77 | 1015.4 |
| 20260906140023 | 71 | 302 | 3.0 | 6.0 | 0.00 | 0.43 | 0.00 | 79 | 1015.5 |
| 20260906134509 | 71 | 5 | 0.0 | 9.0 | 0.00 | 0.43 | 0.00 | 80 | 1015.5 |
| 20260906133010 | 70 | 332 | 0.0 | 4.0 | 0.00 | 0.43 | 0.00 | 82 | 1015.6 |
| 20260906131506 | 69 | 38 | 2.0 | 8.0 | 0.00 | 0.43 | 0.00 | 83 | 1015.5 |
| 20260906130006 | 69 | 352 | 3.0 | 8.0 | 0.00 | 0.43 | 0.00 | 84 | 1015.5 |
| 20260906124505 | 68 | 310 | 0.0 | 4.0 | 0.00 | 0.43 | 0.00 | 86 | 1015.3 |
| 20260906123013 | 67 | 335 | 2.0 | 5.0 | 0.00 | 0.43 | 0.00 | 87 | 1015.2 |
| 20260906121508 | 67 | 360 | 2.0 | 10.0 | 0.00 | 0.43 | 0.00 | 88 | 1014.9 |
| 20260906120005 | 67 | 22 | 4.0 | 10.0 | 0.00 | 0.43 | 0.00 | 88 | 1014.5 |
| 20260906114505 | 66 | 351 | 2.0 | 5.0 | 0.00 | 0.43 | 0.00 | 91 | 1014.6 |
| 20260906113003 | 66 | 352 | 1.0 | 4.0 | 0.00 | 0.43 | 0.00 | 92 | 1014.4 |
| 20260906111512 | 65 | 360 | 1.0 | 3.0 | 0.00 | 0.43 | 0.00 | 93 | 1014.4 |
| 20260906110014 | 66 | 340 | 1.0 | 3.0 | 0.00 | 0.43 | 0.00 | 93 | 1014.1 |
| 20260906104513 | 66 | 322 | 1.0 | 3.0 | 0.00 | 0.43 | 0.00 | 92 | 1013.9 |
| 20260906103008 | 67 | 278 | 0.0 | 2.0 | 0.00 | 0.43 | 0.00 | 91 | 1013.8 |
| 20260906101508 | 67 | 323 | 1.0 | 6.0 | 0.00 | 0.43 | 0.00 | 91 | 1013.5 |
| 20260906100005 | 67 | 333 | 4.0 | 9.0 | 0.00 | 0.43 | 0.00 | 91 | 1013.1 |
| 20260906094524 | 68 | 344 | 2.0 | 4.0 | 0.00 | 0.43 | 0.00 | 93 | 1013.3 |
| 20260906093012 | 68 | 352 | 3.0 | 5.0 | 0.00 | 0.43 | 0.00 | 93 | 1013.3 |
| 20260906091506 | 68 | 352 | 3.0 | 5.0 | 0.00 | 0.43 | 0.00 | 95 | 1013.0 |
| 20260906090018 | 69 | 360 | 1.0 | 3.0 | 0.00 | 0.43 | 0.00 | 95 | 1012.9 |
| 20260906084511 | 69 | 345 | 0.0 | 3.0 | 0.00 | 0.43 | 0.00 | 96 | 1012.8 |
| 20260906083011 | 69 | 349 | 1.0 | 2.0 | 0.00 | 0.43 | 0.00 | 95 | 1012.6 |
| 20260906081508 | 69 | 352 | 0.0 | 0.0 | 0.00 | 0.43 | 0.00 | 95 | 1012.5 |
| 20260906080014 | 69 | 340 | 0.0 | 3.0 | 0.00 | 0.43 | 0.00 | 95 | 1012.3 |
| 20260906074532 | 70 | 340 | 0.0 | 3.0 | 0.00 | 0.43 | 0.00 | 95 | 1012.2 |
| 20260906073021 | 70 | 339 | 0.0 | 2.0 | 0.00 | 0.43 | 0.00 | 95 | 1012.3 |
| 20260906071513 | 70 | 328 | 0.0 | 2.0 | 0.00 | 0.43 | 0.00 | 95 | 1012.3 |
| 20260906070008 | 70 | 328 | 0.0 | 0.0 | 0.00 | 0.43 | 0.00 | 95 | 1012.4 |
| 20260906064504 | 70 | 328 | 0.0 | 1.0 | 0.00 | 0.43 | 0.00 | 95 | 1012.5 |
| 20260906063003 | 70 | 328 | 0.0 | 1.0 | 0.00 | 0.43 | 0.00 | 95 | 1012.4 |
| 20260906061504 | 70 | 328 | 0.0 | 0.0 | 0.00 | 0.43 | 0.00 | 96 | 1012.3 |
| 20260906060008 | 70 | 328 | 0.0 | 1.0 | 0.00 | 0.43 | 0.00 | 95 | 1012.2 |
| 20260906054509 | 70 | 328 | 0.0 | 3.0 | 0.00 | 0.43 | 0.00 | 95 | 1012.5 |
| 20260906053018 | 70 | 347 | 0.0 | 5.0 | 0.00 | 0.43 | 0.00 | 95 | 1012.5 |
| 20260906051508 | 70 | 352 | 2.0 | 4.0 | 0.00 | 0.43 | 0.00 | 96 | 1012.7 |
| 20260906050004 | 70 | 347 | 1.0 | 3.0 | 0.00 | 0.43 | 0.00 | 95 | 1012.6 |
| 20260906044509 | 70 | 349 | 2.0 | 4.0 | 0.00 | 0.43 | 0.00 | 95 | 1012.7 |
| 20260906043017 | 70 | 332 | 0.0 | 3.0 | 0.00 | 0.43 | 0.00 | 95 | 1013.1 |
| 20260906041533 | 70 | 342 | 1.0 | 3.0 | 0.00 | 0.43 | 0.00 | 95 | 1013.0 |
| 20260906040013 | 70 | 345 | 2.0 | 4.0 | 0.00 | 0.43 | 0.00 | 95 | 1013.0 |
| 20260906034512 | 70 | 350 | 2.0 | 6.0 | 0.00 | 0.43 | 0.43 | 95 | 1013.0 |
| 20260906033007 | 70 | 352 | 1.0 | 4.0 | 0.00 | 0.43 | 0.43 | 94 | 1013.0 |
| 20260906031522 | 70 | 360 | 0.0 | 2.0 | 0.00 | 0.43 | 0.43 | 94 | 1012.9 |
| 20260906030032 | 70 | 360 | 0.0 | 2.0 | 0.00 | 0.43 | 0.43 | 94 | 1012.8 |
| 20260906024527 | 70 | 28 | 0.0 | 3.0 | 0.00 | 0.43 | 0.43 | 95 | 1012.7 |
| 20260906023007 | 71 | 5 | 1.0 | 4.0 | 0.00 | 0.43 | 0.43 | 95 | 1013.0 |
| 20260906021516 | 71 | 333 | 2.0 | 5.0 | 0.00 | 0.43 | 0.43 | 94 | 1012.9 |
| 20260906020008 | 71 | 347 | 0.0 | 0.0 | 0.00 | 0.43 | 0.43 | 95 | 1012.9 |
| 20260906014542 | 71 | 360 | 0.0 | 0.0 | 0.00 | 0.43 | 0.43 | 94 | 1012.5 |
| 20260906013032 | 72 | 5 | 0.0 | 0.0 | 0.00 | 0.43 | 0.43 | 94 | 1012.3 |
| 20260906011512 | 72 | 33 | 0.0 | 0.0 | 0.00 | 0.43 | 0.43 | 94 | 1012.2 |
| 20260906010008 | 72 | 22 | 0.0 | 0.0 | 0.00 | 0.43 | 0.43 | 94 | 1012.2 |
| 20260906004503 | 73 | 352 | 0.0 | 0.0 | 0.00 | 0.43 | 0.43 | 94 | 1011.9 |
| 20260906003005 | 73 | 352 | 0.0 | 0.0 | 0.01 | 0.43 | 0.43 | 94 | 1011.8 |
| 20260906001507 | 73 | 349 | 0.0 | 0.0 | 0.02 | 0.43 | 0.43 | 94 | 1011.5 |
| 20260906000008 | 74 | 360 | 0.0 | 2.0 | 0.03 | 0.43 | 0.43 | 94 | 1011.6 |
| 20260905234503 | 74 | 360 | 0.0 | 2.0 | 0.03 | 0.43 | 0.43 | 93 | 1011.7 |
| 20260905233004 | 74 | 97 | 0.0 | 1.0 | 0.02 | 0.42 | 0.42 | 92 | 1011.7 |
| 20260905231503 | 75 | 91 | 0.0 | 2.0 | 0.01 | 0.41 | 0.41 | 90 | 1011.9 |
| 20260905230012 | 76 | 84 | 0.0 | 3.0 | 0.00 | 0.40 | 0.40 | 89 | 1011.8 |
| 20260905224519 | 76 | 166 | 1.0 | 6.0 | 0.00 | 0.40 | 0.40 | 88 | 1011.5 |
| 20260905223013 | 76 | 159 | 2.0 | 5.0 | 0.00 | 0.40 | 0.40 | 86 | 1011.6 |
| 20260905221507 | 76 | 173 | 4.0 | 6.0 | 0.00 | 0.40 | 0.40 | 86 | 1011.4 |
| 20260905220004 | 76 | 174 | 2.0 | 5.0 | 0.00 | 0.40 | 0.40 | 86 | 1011.4 |
| 20260905214504 | 77 | 176 | 0.0 | 0.0 | 0.00 | 0.40 | 0.40 | 86 | 1011.2 |
| 20260905213023 | 77 | 176 | 0.0 | 0.0 | 0.00 | 0.42 | 0.40 | 84 | 1011.2 |
| 20260905211523 | 78 | 176 | 0.0 | 1.0 | 0.00 | 0.42 | 0.40 | 83 | 1011.2 |
| 20260905210006 | 78 | 194 | 0.0 | 1.0 | 0.00 | 0.42 | 0.40 | 83 | 1011.0 |
| 20260905204518 | 78 | 186 | 1.0 | 4.0 | 0.00 | 0.42 | 0.40 | 82 | 1011.0 |
| 20260905203007 | 77 | 139 | 0.0 | 4.0 | 0.00 | 0.42 | 0.40 | 83 | 1011.1 |
| 20260905201506 | 76 | 166 | 2.0 | 5.0 | 0.00 | 0.42 | 0.40 | 83 | 1011.1 |
| 20260905200011 | 75 | 174 | 3.0 | 8.0 | 0.00 | 0.42 | 0.40 | 87 | 1011.3 |
| 20260905194514 | 74 | 158 | 3.0 | 9.0 | 0.00 | 0.42 | 0.40 | 88 | 1011.3 |
| 20260905193023 | 73 | 173 | 7.0 | 13.0 | 0.00 | 0.42 | 0.40 | 90 | 1011.7 |
| 20260905191523 | 72 | 168 | 4.0 | 12.0 | 0.00 | 0.42 | 0.40 | 92 | 1011.9 |
| 20260905190003 | 72 | 140 | 7.0 | 12.0 | 0.00 | 0.42 | 0.40 | 91 | 1012.1 |
| 20260905184503 | 72 | 168 | 7.0 | 12.0 | 0.00 | 0.42 | 0.40 | 92 | 1012.2 |